QPF
0.00 0.00 0.00 0.00 0.00 0.00 0.00 0.00 0.00 0.00 0.00 0.00 0.00 0.00 0.00 0.00 0.00 0.00 0.00 0.00 0.00 0.00 0.00 0.00 0.00 0.00 0.00 0.00 0.00 0.00 0.00 0.00 0.00 0.00 0.00 0.00 0.00 0.00 0.00 0.00 0.00 0.00 0.00 0.00
0.00 0.00 0.00 0.00 0.00 0.00 0.00 0.00 0.00 0.00 0.00 0.00 0.00 0.00 0.00 0.00 0.00 0.00 0.00 0.00 0.00 0.00 0.00 0.00 0.00 0.00 0.00 0.00 0.00 0.00 0.00 0.00 0.00 0.00 0.00 0.00 0.00 0.00 0.00 0.00 0.00 0.00 0.00 0.00
0.00 0.00 0.00 0.00 0.00 0.00 0.00 0.00 0.00 0.00 0.00 0.00 0.00 0.00 0.00 0.00 0.00 0.00 0.00 0.00 0.00 0.00 0.00 0.00 0.00 0.00 0.00 0.00 0.00 0.00 0.00 0.00 0.00 0.00 0.00 0.00 0.00 0.00 0.00 0.00 0.00 0.00 0.00 0.00
0.00 0.00 0.00 0.00 0.00 0.00 0.00 0.00 0.00 0.00 0.00 0.00 0.00 0.00 0.00 0.00 0.00 0.00 0.00 0.00 0.00 0.00 0.00 0.00 0.00 0.00 0.00 0.00 0.00 0.00 0.00 0.00 0.00 0.00 0.00 0.00 0.00 0.00 0.00 0.00 0.00 0.00 0.00 0.00
0.00 0.00 0.00 0.00 0.00 0.00 0.00 0.00 0.00 0.00 0.00 0.00 0.00 0.00 0.00 0.00 0.00 0.00 0.00 0.00 0.00 0.00 0.00 0.00 0.00 0.00 0.00 0.00 0.00 0.00 0.00 0.00 0.00 0.00 0.00 0.00 0.00 0.00 0.00 0.00 0.00 0.00 0.00 0.00
0.00 0.00 0.00 0.00 0.00 0.00 0.00 0.00 0.00 0.00 0.00 0.00 0.00 0.00 0.00 0.00 0.00 0.00 0.00 0.00 0.00 0.00 0.00 0.00 0.00 0.00 0.00 0.00 0.00 0.00 0.00 0.00 0.00 0.00 0.00 0.00 0.00 0.00 0.00 0.00 0.00 0.00 0.00 0.00
0.00 0.00 0.00 0.00 0.00 0.00 0.00 0.00 0.00 0.00 0.00 0.00 0.00 0.00 0.00 0.00 0.00 0.00 0.00 0.00 0.00 0.00 0.00 0.00 0.00 0.00 0.00 0.00 0.00 0.00 0.00 0.00 0.00 0.00 0.00 0.00 0.00 0.00 0.00 0.00 0.00 0.00 0.00 0.00
0.00 0.00 0.00 0.00 0.00 0.00 0.00 0.00 0.00 0.00 0.00 0.00 0.00 0.00 0.00 0.00 0.00 0.00 0.00 0.00 0.00 0.00 0.00 0.00 0.00 0.00 0.00 0.00 0.00 0.00 0.00 0.00 0.00 0.00 0.00 0.00 0.00 0.00 0.00 0.00 0.00 0.00 0.00 0.00
0.00 0.00 0.00 0.00 0.00 0.00 0.00 0.00 0.00 0.00 0.00 0.00 0.00 0.00 0.00 0.00 0.00 0.00 0.00 0.00 0.00 0.00 0.00 0.00 0.00 0.00 0.00 0.00 0.00 0.00 0.00 0.00 0.00 0.00 0.00 0.00 0.00 0.00 0.00 0.00 0.00 0.00 0.00 0.00
0.00 0.00 0.00 0.00 0.00 0.00 0.00 0.00 0.00 0.00 0.00 0.00 0.00 0.00 0.00 0.00 0.00 0.00 0.00 0.00 0.00 0.00 0.00 0.00 0.00 0.00 0.00 0.00 0.00 0.00 0.00 0.00 0.00 0.00 0.00 0.00 0.00 0.00 0.00 0.00 0.00 0.00 0.00 0.00
0.00 0.00 0.00 0.00 0.00 0.00 0.00 0.00 0.00 0.00 0.00 0.00 0.00 0.00 0.00 0.00 0.00 0.00 0.00 0.00 0.00 0.00 0.00 0.00 0.00 0.00 0.00 0.00 0.00 0.00 0.00 0.00 0.00 0.00 0.00 0.00 0.00 0.00 0.00 0.00 0.00 0.00 0.00 0.00
0.00 0.00 0.00 0.00 0.00 0.00 0.00 0.00 0.00 0.00 0.00 0.00 0.00 0.00 0.00 0.00 0.00 0.00 0.00 0.00 0.00 0.00 0.00 0.00 0.00 0.00 0.00 0.00 0.00 0.00 0.00 0.00 0.00 0.00 0.00 0.00 0.00 0.00 0.00 0.00 0.00 0.00 0.00 0.00
0.00 0.00 0.00 0.00 0.00 0.00 0.00 0.00 0.00 0.00 0.00 0.00 0.00 0.00 0.00 0.00 0.00 0.00 0.00 0.00 0.00 0.00 0.00 0.00 0.00 0.00 0.00 0.00 0.00 0.00 0.00 0.00 0.00 0.00 0.00 0.00 0.00 0.00 0.00 0.00 0.00 0.00 0.00 0.00
0.00 0.00 0.00 0.00 0.00 0.00 0.00 0.00 0.00 0.00 0.00 0.00 0.00 0.00 0.00 0.00 0.00 0.00 0.00 0.00 0.00 0.00 0.00 0.00 0.00 0.00 0.00 0.00 0.00 0.00 0.00 0.00 0.00 0.00 0.00 0.00 0.00 0.00 0.00 0.00 0.00 0.00 0.00 0.00
0.00 0.00 0.00 0.00 0.00 0.00 0.00 0.00 0.00 0.00 0.00 0.00 0.00 0.00 0.00 0.00 0.00 0.00 0.00 0.00 0.00 0.00 0.00 0.00 0.00 0.00 0.00 0.00 0.00 0.00 0.00 0.00 0.00 0.00 0.00 0.00 0.00 0.00 0.00 0.00 0.00 0.00 0.00 0.00
0.00 0.00 0.00 0.00 0.00 0.00 0.00 0.00 0.00 0.00 0.00 0.00 0.00 0.00 0.00 0.00 0.00 0.00 0.00 0.00 0.00 0.00 0.00 0.00 0.00 0.00 0.00 0.00 0.00 0.00 0.00 0.00 0.00 0.00 0.00 0.00 0.00 0.00 0.00 0.00 0.00 0.00 0.00 0.00
0.00 0.00 0.00 0.00 0.00 0.00 0.00 0.00 0.00 0.00 0.00 0.00 0.00 0.00 0.00 0.00 0.00 0.00 0.00 0.00 0.00 0.00 0.00 0.00 0.00 0.00 0.00 0.00 0.00 0.00 0.00 0.00 0.00 0.00 0.00 0.00 0.00 0.00 0.00 0.00 0.00 0.00 0.00 0.00
0.00 0.00 0.00 0.00 0.00 0.00 0.00 0.00 0.00 0.00 0.00 0.00 0.00 0.00 0.00 0.00 0.00 0.00 0.00 0.00 0.00 0.00 0.00 0.00 0.00 0.00 0.00 0.00 0.00 0.00 0.00 0.00 0.00 0.00 0.00 0.00 0.00 0.00 0.00 0.00 0.00 0.00 0.00 0.00
0.00 0.00 0.00 0.00 0.00 0.00 0.00 0.00 0.00 0.00 0.00 0.00 0.00 0.00 0.00 0.00 0.00 0.00 0.00 0.00 0.00 0.00 0.00 0.00 0.00 0.00 0.00 0.00 0.00 0.00 0.00 0.00 0.00 0.00 0.00 0.00 0.00 0.00 0.00 0.00 0.00 0.00 0.00 0.00
0.00 0.00 0.00 0.00 0.00 0.00 0.00 0.00 0.00 0.00 0.00 0.00 0.00 0.00 0.00 0.00 0.00 0.00 0.00 0.00 0.00 0.00 0.00 0.00 0.00 0.00 0.00 0.00 0.00 0.00 0.00 0.00 0.00 0.00 0.00 0.00 0.00 0.00 0.00 0.00 0.00 0.00 0.00 0.00
0.01 0.00 0.00 0.00 0.00 0.00 0.00 0.00 0.00 0.00 0.00 0.00 0.00 0.00 0.00 0.00 0.00 0.00 0.00 0.00 0.00 0.00 0.00 0.00 0.00 0.00 0.00 0.00 0.00 0.00 0.00 0.00 0.00 0.00 0.00 0.00 0.00 0.00 0.00 0.00 0.00 0.00 0.00 0.00
0.01 0.01 0.00 0.00 0.00 0.00 0.00 0.00 0.00 0.00 0.00 0.00 0.00 0.00 0.00 0.00 0.00 0.00 0.00 0.00 0.00 0.00 0.00 0.00 0.00 0.00 0.00 0.00 0.00 0.00 0.00 0.00 0.00 0.00 0.00 0.00 0.00 0.00 0.00 0.00 0.00 0.00 0.00 0.00
0.02 0.01 0.01 0.01 0.00 0.00 0.00 0.00 0.00 0.00 0.00 0.00 0.00 0.00 0.00 0.00 0.00 0.00 0.00 0.00 0.00 0.00 0.00 0.00 0.00 0.00 0.00 0.00 0.00 0.00 0.00 0.00 0.00 0.00 0.00 0.00 0.00 0.00 0.00 0.00 0.00 0.00 0.00 0.00
0.02 0.02 0.02 0.02 0.01 0.01 0.01 0.01 0.01 0.01 0.01 0.01 0.01 0.01 0.01 0.01 0.01 0.01 0.01 0.01 0.00 0.00 0.00 0.00 0.00 0.00 0.00 0.00 0.00 0.00 0.00 0.00 0.00 0.00 0.00 0.00 0.00 0.00 0.00 0.00 0.00 0.00 0.00 0.00
0.03 0.03 0.02 0.02 0.02 0.02 0.02 0.02 0.02 0.02 0.01 0.02 0.02 0.02 0.02 0.02 0.02 0.02 0.02 0.01 0.01 0.00 0.00 0.00 0.00 0.00 0.00 0.00 0.00 0.00 0.00 0.00 0.00 0.00 0.00 0.00 0.00 0.00 0.00 0.00 0.00 0.00 0.00 0.00
0.03 0.03 0.02 0.02 0.02 0.02 0.03 0.03 0.03 0.03 0.02 0.01 0.01 0.01 0.01 0.01 0.01 0.01 0.01 0.01 0.01 0.00 0.00 0.00 0.00 0.00 0.00 0.00 0.00 0.00 0.00 0.00 0.00 0.00 0.00 0.00 0.00 0.00 0.00 0.00 0.00 0.00 0.00 0.00
0.03 0.03 0.03 0.02 0.02 0.02 0.02 0.03 0.03 0.03 0.03 0.02 0.02 0.01 0.01 0.01 0.01 0.00 0.00 0.00 0.00 0.00 0.00 0.00 0.00 0.00 0.00 0.00 0.00 0.00 0.00 0.00 0.00 0.00 0.00 0.00 0.00 0.00 0.00 0.00 0.00 0.00 0.00 0.00
MSLP
1012.66 1013.18 1013.67 1014.09 1014.38 1014.49 1014.39 1014.07 1013.52 1012.80 1011.97 1011.11 1010.30 1009.64 1009.18 1008.96 1008.97 1009.19 1009.58 1010.05 1010.55 1011.02 1011.42 1011.72 1011.94 1012.09 1012.19 1012.28 1012.37 1012.49 1012.63 1012.79 1012.96 1013.13 1013.28 1013.41 1013.51 1013.58 1013.63 1013.66 1013.68 1013.69 1013.70 1013.69
1012.69 1013.07 1013.36 1013.54 1013.57 1013.42 1013.10 1012.61 1011.98 1011.27 1010.52 1009.81 1009.20 1008.74 1008.47 1008.39 1008.50 1008.76 1009.13 1009.56 1010.00 1010.41 1010.76 1011.06 1011.30 1011.49 1011.66 1011.82 1011.98 1012.15 1012.33 1012.51 1012.69 1012.86 1013.01 1013.13 1013.23 1013.32 1013.39 1013.44 1013.48 1013.50 1013.51 1013.51
1012.59 1012.83 1012.93 1012.88 1012.66 1012.29 1011.78 1011.16 1010.47 1009.78 1009.12 1008.55 1008.11 1007.83 1007.72 1007.77 1007.95 1008.24 1008.60 1008.98 1009.37 1009.73 1010.05 1010.35 1010.61 1010.85 1011.09 1011.32 1011.55 1011.77 1011.99 1012.19 1012.37 1012.53 1012.67 1012.78 1012.89 1012.98 1013.05 1013.12 1013.17 1013.21 1013.22 1013.21
1012.39 1012.46 1012.38 1012.13 1011.71 1011.16 1010.50 1009.79 1009.07 1008.40 1007.82 1007.37 1007.08 1006.95 1006.96 1007.10 1007.34 1007.65 1007.99 1008.35 1008.70 1009.03 1009.34 1009.64 1009.94 1010.23 1010.53 1010.82 1011.11 1011.37 1011.61 1011.82 1012.00 1012.15 1012.27 1012.38 1012.47 1012.56 1012.64 1012.71 1012.77 1012.80 1012.80 1012.78
1012.12 1012.02 1011.76 1011.33 1010.76 1010.07 1009.31 1008.54 1007.81 1007.17 1006.67 1006.31 1006.13 1006.10 1006.21 1006.42 1006.70 1007.03 1007.37 1007.71 1008.04 1008.36 1008.68 1009.01 1009.35 1009.69 1010.04 1010.38 1010.71 1011.00 1011.25 1011.46 1011.63 1011.76 1011.86 1011.95 1012.04 1012.12 1012.19 1012.26 1012.30 1012.32 1012.30 1012.25
1011.78 1011.51 1011.10 1010.53 1009.84 1009.05 1008.23 1007.43 1006.71 1006.10 1005.65 1005.37 1005.27 1005.31 1005.48 1005.74 1006.06 1006.40 1006.75 1007.10 1007.44 1007.79 1008.14 1008.50 1008.88 1009.27 1009.67 1010.04 1010.39 1010.70 1010.95 1011.15 1011.30 1011.42 1011.51 1011.58 1011.65 1011.72 1011.78 1011.82 1011.84 1011.83 1011.77 1011.67
1011.41 1010.99 1010.43 1009.76 1008.98 1008.14 1007.29 1006.48 1005.77 1005.19 1004.79 1004.55 1004.50 1004.59 1004.80 1005.10 1005.44 1005.82 1006.19 1006.57 1006.95 1007.34 1007.73 1008.15 1008.57 1009.00 1009.43 1009.83 1010.19 1010.50 1010.75 1010.94 1011.08 1011.18 1011.25 1011.32 1011.37 1011.43 1011.47 1011.49 1011.47 1011.41 1011.30 1011.14
1011.01 1010.46 1009.81 1009.05 1008.23 1007.36 1006.50 1005.70 1005.01 1004.46 1004.08 1003.87 1003.84 1003.96 1004.19 1004.52 1004.89 1005.30 1005.72 1006.15 1006.59 1007.03 1007.48 1007.95 1008.42 1008.88 1009.33 1009.75 1010.11 1010.42 1010.66 1010.84 1010.98 1011.07 1011.15 1011.21 1011.27 1011.31 1011.33 1011.32 1011.26 1011.15 1010.97 1010.74
1010.62 1009.98 1009.27 1008.47 1007.62 1006.75 1005.90 1005.11 1004.44 1003.90 1003.53 1003.33 1003.31 1003.43 1003.68 1004.02 1004.43 1004.88 1005.35 1005.85 1006.35 1006.86 1007.37 1007.89 1008.40 1008.89 1009.36 1009.77 1010.14 1010.44 1010.68 1010.87 1011.01 1011.13 1011.22 1011.30 1011.36 1011.40 1011.41 1011.37 1011.26 1011.09 1010.84 1010.54
1010.28 1009.60 1008.86 1008.05 1007.21 1006.35 1005.51 1004.74 1004.07 1003.53 1003.15 1002.94 1002.90 1003.01 1003.26 1003.62 1004.05 1004.55 1005.09 1005.64 1006.22 1006.79 1007.37 1007.93 1008.47 1008.99 1009.46 1009.87 1010.23 1010.54 1010.79 1010.99 1011.17 1011.31 1011.44 1011.55 1011.64 1011.69 1011.69 1011.63 1011.49 1011.26 1010.95 1010.57
1010.03 1009.35 1008.62 1007.84 1007.02 1006.18 1005.35 1004.58 1003.90 1003.34 1002.93 1002.68 1002.61 1002.70 1002.94 1003.30 1003.76 1004.30 1004.89 1005.52 1006.16 1006.79 1007.42 1008.02 1008.59 1009.11 1009.58 1010.00 1010.36 1010.67 1010.94 1011.18 1011.39 1011.59 1011.77 1011.93 1012.06 1012.13 1012.14 1012.07 1011.90 1011.63 1011.27 1010.84
1009.89 1009.26 1008.57 1007.82 1007.03 1006.21 1005.39 1004.60 1003.89 1003.29 1002.83 1002.52 1002.40 1002.46 1002.67 1003.03 1003.52 1004.09 1004.74 1005.42 1006.12 1006.81 1007.47 1008.10 1008.68 1009.21 1009.68 1010.10 1010.47 1010.80 1011.10 1011.38 1011.65 1011.91 1012.15 1012.37 1012.54 1012.66 1012.69 1012.62 1012.44 1012.15 1011.76 1011.30
1009.87 1009.30 1008.67 1007.98 1007.21 1006.39 1005.56 1004.74 1003.97 1003.31 1002.77 1002.40 1002.22 1002.23 1002.42 1002.77 1003.27 1003.88 1004.57 1005.30 1006.05 1006.79 1007.49 1008.14 1008.73 1009.26 1009.73 1010.15 1010.53 1010.89 1011.22 1011.55 1011.88 1012.20 1012.51 1012.79 1013.02 1013.17 1013.23 1013.18 1013.01 1012.72 1012.32 1011.86
1009.94 1009.45 1008.88 1008.22 1007.46 1006.63 1005.76 1004.89 1004.05 1003.30 1002.69 1002.24 1001.99 1001.95 1002.11 1002.46 1002.98 1003.62 1004.35 1005.13 1005.93 1006.70 1007.43 1008.11 1008.71 1009.25 1009.73 1010.15 1010.55 1010.93 1011.30 1011.68 1012.06 1012.44 1012.81 1013.15 1013.42 1013.61 1013.70 1013.67 1013.52 1013.25 1012.88 1012.44
1010.04 1009.62 1009.09 1008.45 1007.69 1006.82 1005.89 1004.94 1004.02 1003.19 1002.49 1001.96 1001.65 1001.57 1001.71 1002.06 1002.59 1003.27 1004.05 1004.88 1005.72 1006.54 1007.31 1008.01 1008.63 1009.18 1009.67 1010.11 1010.53 1010.93 1011.34 1011.75 1012.18 1012.61 1013.02 1013.39 1013.70 1013.93 1014.05 1014.05 1013.93 1013.69 1013.37 1012.98
1010.12 1009.73 1009.22 1008.57 1007.77 1006.86 1005.86 1004.83 1003.82 1002.90 1002.12 1001.53 1001.18 1001.06 1001.20 1001.56 1002.12 1002.83 1003.66 1004.54 1005.44 1006.31 1007.12 1007.85 1008.50 1009.08 1009.59 1010.05 1010.49 1010.91 1011.34 1011.79 1012.24 1012.69 1013.13 1013.52 1013.85 1014.09 1014.23 1014.26 1014.18 1013.99 1013.73 1013.40
1010.10 1009.72 1009.19 1008.50 1007.65 1006.67 1005.60 1004.49 1003.41 1002.42 1001.58 1000.95 1000.56 1000.44 1000.58 1000.97 1001.56 1002.33 1003.20 1004.15 1005.10 1006.02 1006.88 1007.65 1008.35 1008.96 1009.50 1009.99 1010.45 1010.89 1011.34 1011.80 1012.26 1012.72 1013.15 1013.55 1013.88 1014.12 1014.28 1014.33 1014.28 1014.15 1013.94 1013.70
1009.94 1009.53 1008.96 1008.21 1007.30 1006.26 1005.12 1003.95 1002.81 1001.78 1000.91 1000.26 999.87 999.75 999.92 1000.33 1000.97 1001.78 1002.71 1003.71 1004.72 1005.70 1006.61 1007.44 1008.18 1008.83 1009.41 1009.93 1010.41 1010.88 1011.34 1011.80 1012.25 1012.70 1013.11 1013.49 1013.80 1014.04 1014.19 1014.26 1014.25 1014.16 1014.02 1013.84
1009.65 1009.18 1008.54 1007.73 1006.76 1005.66 1004.48 1003.27 1002.11 1001.07 1000.19 999.55 999.18 999.09 999.28 999.74 1000.41 1001.26 1002.24 1003.28 1004.34 1005.36 1006.33 1007.20 1007.99 1008.69 1009.32 1009.87 1010.39 1010.87 1011.33 1011.78 1012.22 1012.64 1013.03 1013.37 1013.65 1013.87 1014.02 1014.10 1014.11 1014.06 1013.98 1013.86
1009.24 1008.70 1008.00 1007.14 1006.12 1004.99 1003.79 1002.58 1001.43 1000.40 999.56 998.95 998.61 998.55 998.77 999.25 999.95 1000.83 1001.83 1002.89 1003.98 1005.04 1006.04 1006.96 1007.80 1008.54 1009.21 1009.80 1010.34 1010.83 1011.30 1011.74 1012.16 1012.55 1012.90 1013.20 1013.46 1013.66 1013.79 1013.87 1013.90 1013.89 1013.84 1013.78
1008.79 1008.19 1007.43 1006.53 1005.50 1004.36 1003.18 1002.01 1000.90 999.92 999.12 998.55 998.25 998.22 998.46 998.95 999.65 1000.52 1001.52 1002.58 1003.67 1004.74 1005.76 1006.71 1007.58 1008.36 1009.06 1009.69 1010.25 1010.76 1011.23 1011.66 1012.06 1012.42 1012.73 1013.00 1013.23 1013.41 1013.53 1013.61 1013.66 1013.67 1013.65 1013.61
1008.34 1007.68 1006.90 1005.99 1004.97 1003.88 1002.75 1001.63 1000.59 999.68 998.95 998.44 998.17 998.16 998.41 998.88 999.55 1000.39 1001.35 1002.37 1003.43 1004.49 1005.50 1006.46 1007.34 1008.15 1008.87 1009.53 1010.11 1010.64 1011.11 1011.53 1011.91 1012.24 1012.53 1012.78 1012.98 1013.14 1013.26 1013.34 1013.39 1013.42 1013.42 1013.40
1007.91 1007.24 1006.47 1005.58 1004.61 1003.58 1002.53 1001.51 1000.56 999.74 999.08 998.62 998.39 998.38 998.61 999.04 999.66 1000.43 1001.32 1002.28 1003.29 1004.29 1005.28 1006.22 1007.10 1007.91 1008.66 1009.33 1009.93 1010.46 1010.94 1011.36 1011.72 1012.04 1012.31 1012.53 1012.72 1012.87 1012.98 1013.07 1013.13 1013.16 1013.17 1013.16
1007.51 1006.86 1006.12 1005.29 1004.39 1003.46 1002.51 1001.60 1000.77 1000.04 999.46 999.05 998.84 998.84 999.03 999.41 999.96 1000.64 1001.44 1002.32 1003.24 1004.18 1005.12 1006.02 1006.89 1007.69 1008.44 1009.11 1009.72 1010.26 1010.74 1011.15 1011.51 1011.81 1012.07 1012.28 1012.46 1012.60 1012.71 1012.80 1012.87 1012.91 1012.93 1012.91
1007.09 1006.48 1005.80 1005.06 1004.27 1003.44 1002.63 1001.84 1001.12 1000.50 1000.00 999.65 999.47 999.45 999.61 999.93 1000.40 1000.99 1001.69 1002.47 1003.31 1004.17 1005.04 1005.90 1006.73 1007.52 1008.25 1008.92 1009.53 1010.07 1010.54 1010.95 1011.30 1011.59 1011.84 1012.04 1012.21 1012.35 1012.47 1012.56 1012.63 1012.68 1012.70 1012.67
1006.59 1006.05 1005.45 1004.80 1004.13 1003.43 1002.75 1002.10 1001.50 1000.99 1000.58 1000.29 1000.14 1000.13 1000.26 1000.53 1000.93 1001.44 1002.05 1002.74 1003.49 1004.27 1005.08 1005.88 1006.67 1007.43 1008.14 1008.80 1009.39 1009.92 1010.39 1010.78 1011.12 1011.40 1011.64 1011.83 1012.00 1012.14 1012.25 1012.35 1012.42 1012.46 1012.47 1012.44
1005.94 1005.47 1004.97 1004.43 1003.87 1003.31 1002.76 1002.25 1001.78 1001.39 1001.07 1000.86 1000.76 1000.77 1000.89 1001.13 1001.48 1001.93 1002.47 1003.08 1003.75 1004.47 1005.22 1005.97 1006.71 1007.44 1008.12 1008.75 1009.33 1009.84 1010.29 1010.67 1010.99 1011.26 1011.48 1011.67 1011.82 1011.95 1012.07 1012.15 1012.22 1012.26 1012.26 1012.22
Thickness
5693 5698 5699 5697 5697 5688 5683 5683 5677 5687 5691 5711 5721 5726 5730 5731 5730 5729 5728 5727 5726 5723 5721 5719 5716 5714 5712 5710 5708 5705 5700 5697 5694 5691 5688 5685 5682 5679 5676 5673 5671 5668 5665 5663
5691 5699 5694 5691 5697 5694 5691 5693 5690 5695 5702 5724 5728 5729 5729 5730 5729 5728 5729 5729 5728 5726 5723 5720 5718 5716 5714 5711 5709 5705 5701 5698 5696 5692 5688 5685 5682 5679 5675 5673 5670 5667 5665 5662
5673 5685 5687 5681 5698 5699 5699 5703 5702 5702 5719 5730 5728 5728 5732 5733 5732 5732 5733 5732 5731 5729 5727 5724 5722 5719 5715 5713 5710 5705 5702 5699 5696 5692 5688 5685 5682 5678 5675 5672 5669 5666 5664 5662
5666 5676 5667 5695 5716 5713 5709 5714 5715 5721 5729 5733 5735 5739 5741 5740 5737 5736 5737 5735 5733 5731 5729 5727 5724 5720 5717 5713 5709 5705 5702 5699 5696 5692 5689 5685 5681 5678 5675 5671 5668 5666 5664 5662
5656 5659 5668 5694 5712 5711 5707 5713 5728 5728 5735 5737 5737 5737 5738 5743 5742 5742 5741 5739 5737 5734 5731 5727 5723 5720 5715 5710 5707 5703 5700 5698 5695 5692 5688 5684 5680 5678 5674 5670 5668 5665 5663 5661
5651 5658 5661 5693 5718 5722 5714 5709 5736 5734 5735 5733 5729 5720 5733 5747 5745 5743 5742 5739 5736 5732 5729 5724 5721 5718 5713 5708 5704 5702 5700 5698 5695 5691 5687 5683 5680 5677 5673 5669 5667 5664 5662 5660
5650 5652 5668 5704 5714 5714 5696 5707 5737 5738 5736 5731 5733 5742 5749 5748 5745 5742 5739 5736 5733 5729 5725 5722 5718 5714 5709 5705 5702 5701 5698 5695 5692 5689 5685 5682 5678 5674 5671 5668 5665 5662 5660 5659
5645 5647 5666 5709 5706 5700 5707 5724 5731 5735 5736 5735 5739 5743 5743 5743 5741 5737 5734 5730 5727 5723 5719 5716 5714 5711 5706 5701 5700 5697 5694 5691 5687 5684 5682 5679 5674 5671 5667 5664 5661 5658 5656 5656
5662 5676 5697 5704 5706 5712 5714 5716 5724 5729 5733 5735 5734 5734 5736 5736 5734 5732 5729 5725 5722 5718 5712 5709 5708 5706 5702 5698 5696 5692 5688 5684 5681 5678 5675 5672 5669 5665 5662 5658 5655 5653 5651 5650
5659 5676 5690 5696 5700 5706 5711 5714 5721 5725 5729 5730 5730 5731 5730 5729 5727 5725 5723 5719 5715 5711 5707 5702 5700 5699 5697 5693 5690 5686 5681 5677 5674 5671 5668 5665 5662 5659 5655 5652 5649 5647 5645 5643
5651 5667 5679 5693 5697 5701 5707 5712 5717 5721 5725 5726 5726 5726 5726 5725 5723 5720 5717 5713 5710 5707 5702 5696 5693 5691 5689 5687 5684 5679 5674 5670 5666 5663 5659 5656 5653 5650 5647 5644 5642 5639 5637 5635
5644 5661 5660 5675 5690 5693 5697 5703 5709 5712 5717 5722 5722 5723 5723 5722 5720 5716 5711 5706 5702 5698 5694 5689 5687 5684 5681 5679 5677 5672 5666 5661 5658 5654 5650 5647 5644 5640 5639 5637 5635 5633 5631 5629
5641 5650 5654 5665 5676 5682 5686 5694 5701 5705 5710 5715 5718 5719 5718 5716 5713 5709 5705 5701 5697 5693 5688 5683 5680 5676 5674 5672 5669 5665 5659 5654 5649 5646 5642 5638 5634 5631 5627 5626 5625 5623 5621 5620
5627 5632 5639 5650 5658 5668 5674 5683 5691 5698 5704 5709 5712 5712 5711 5708 5705 5702 5700 5697 5691 5686 5680 5676 5672 5668 5666 5663 5660 5655 5651 5648 5642 5636 5632 5628 5624 5620 5616 5613 5610 5607 5608 5608
5610 5614 5620 5632 5643 5653 5661 5669 5676 5686 5694 5700 5703 5704 5704 5703 5701 5699 5694 5688 5682 5676 5672 5668 5664 5659 5657 5655 5651 5646 5641 5636 5631 5627 5623 5618 5614 5610 5605 5602 5597 5594 5592 5593
5590 5599 5607 5615 5625 5636 5645 5654 5662 5674 5683 5690 5694 5698 5700 5699 5695 5689 5684 5681 5676 5671 5666 5661 5657 5652 5649 5646 5641 5636 5632 5630 5624 5617 5612 5608 5604 5599 5595 5590 5586 5583 5580 5578
5568 5580 5589 5597 5608 5619 5630 5640 5650 5662 5673 5681 5688 5690 5688 5685 5681 5677 5674 5672 5670 5665 5659 5655 5649 5644 5640 5636 5632 5627 5623 5620 5617 5608 5602 5598 5593 5589 5584 5580 5576 5572 5569 5568
5552 5561 5569 5578 5589 5602 5617 5629 5640 5651 5662 5672 5677 5678 5678 5678 5676 5672 5666 5660 5654 5648 5645 5643 5639 5634 5630 5626 5622 5617 5612 5607 5602 5597 5592 5587 5582 5578 5573 5569 5565 5562 5558 5557
5540 5548 5558 5567 5577 5589 5602 5616 5629 5641 5652 5660 5666 5669 5673 5672 5669 5663 5656 5651 5647 5640 5634 5631 5630 5623 5619 5615 5611 5606 5601 5596 5590 5585 5581 5578 5572 5567 5562 5558 5555 5551 5548 5546
5529 5537 5546 5556 5567 5577 5589 5603 5616 5628 5640 5648 5654 5657 5657 5657 5654 5650 5646 5643 5642 5638 5628 5623 5618 5611 5607 5604 5600 5594 5589 5585 5579 5574 5569 5564 5560 5556 5552 5548 5545 5541 5538 5536
5516 5524 5533 5543 5555 5566 5577 5588 5601 5613 5625 5633 5639 5644 5646 5644 5641 5638 5633 5626 5620 5619 5615 5612 5604 5599 5595 5592 5589 5582 5577 5572 5567 5562 5558 5553 5549 5545 5541 5537 5534 5531 5528 5526
5503 5511 5520 5530 5541 5553 5564 5575 5586 5598 5608 5616 5622 5626 5626 5625 5623 5622 5621 5618 5611 5606 5602 5597 5590 5588 5584 5580 5573 5569 5564 5560 5555 5550 5545 5541 5537 5533 5530 5526 5523 5520 5518 5515
5493 5500 5508 5517 5527 5538 5550 5560 5570 5580 5590 5598 5603 5607 5610 5610 5610 5609 5601 5597 5596 5594 5588 5582 5579 5578 5574 5566 5560 5556 5552 5547 5543 5538 5534 5530 5526 5523 5519 5516 5512 5509 5506 5504
5485 5491 5499 5507 5515 5525 5535 5544 5552 5561 5569 5577 5584 5588 5590 5589 5587 5588 5588 5586 5584 5579 5571 5569 5568 5565 5560 5550 5547 5543 5539 5535 5530 5526 5522 5519 5515 5511 5508 5504 5501 5498 5496 5494
5476 5482 5489 5495 5502 5510 5519 5527 5535 5541 5548 5554 5560 5566 5569 5573 5574 5572 5571 5569 5568 5562 5556 5556 5555 5551 5543 5538 5534 5530 5526 5522 5518 5514 5511 5507 5503 5500 5496 5493 5491 5488 5485 5483
5469 5474 5480 5485 5491 5497 5505 5512 5518 5524 5529 5535 5539 5544 5548 5551 5554 5554 5554 5553 5551 5547 5542 5540 5538 5535 5528 5525 5521 5518 5514 5511 5507 5503 5499 5495 5492 5489 5485 5483 5480 5477 5475 5472
5463 5468 5473 5480 5485 5489 5494 5499 5505 5510 5515 5520 5523 5527 5531 5534 5536 5537 5536 5535 5533 5529 5526 5524 5522 5519 5515 5512 5508 5505 5502 5498 5495 5491 5487 5484 5481 5478 5475 5472 5469 5467 5464 5461